Location: Almora
(40.2342°N, 4.3904°W)
Time: 01:36:32
(UTC+00:00)

Daily predictions for brighter satellites

Satellite Brightness Start Highest point End
(mag) Time Altitude Azimuth Time Altitude Azimuth Time Altitude Azimuth
Cosmos 2297 Rocket 2.9 00:14:23 48° NE 00:14:23 48° NE 00:18:33 10° NNE
Cosmos 2322 4.2 00:18:21 10° NNW 00:22:42 53° NW 00:22:42 53° NW
Cosmos 2360 Rocket 4.5 00:23:10 10° WNW 00:24:32 13° W 00:24:32 13° W
CZ-2C R/B 3.5 00:23:25 10° N 00:28:30 66° NNW 00:28:30 66° NNW
NOSS 0 Rocket 4.0 00:23:08 10° NNW 00:28:46 73° N 00:28:46 73° N
Cosmos 1937 Rocket 4.4 00:24:35 10° NNW 00:28:06 45° NNW 00:28:06 45° NNW
Iridium 4 Rocket 4.4 00:38:11 48° ENE 00:38:11 48° ENE 00:43:08 10° NNE
Cosmos 2219 Rocket 4.3 00:37:12 10° WNW 00:39:03 16° WNW 00:39:03 16° WNW
Lacrosse 4 Rocket 3.6 00:45:40 22° NE 00:45:40 22° NE 00:47:11 10° NNE
Meteor 2-10 Rocket 4.4 00:41:52 10° N 00:47:00 47° ENE 00:47:00 47° ENE
Meteor 2-20 Rocket 4.5 00:48:01 68° NNW 00:48:01 68° NNW 00:53:01 10° N
BREEZE-M DEB (TANK) 4.0 00:31:31 10° SW 00:51:22 86° NW 00:56:30 10° ENE
Cosmos 1553 Rocket 4.5 00:55:50 49° E 00:56:04 49° E 01:02:11 10° NNE
ATLAS 5 CENTAUR R/B 3.5 00:58:11 54° ESE 00:58:12 54° ESE 01:11:35 10° NE
SeaSat 1 3.1 01:00:00 53° N 01:00:00 53° N 01:03:54 10° NNW
USA 234 4.4 00:54:08 10° NE 01:00:02 38° NNW 01:04:21 18° W
SL-16 R/B 4.1 00:57:18 10° N 01:01:53 24° NE 01:05:31 14° E
ACS3 Solar Sail 1.8 00:57:25 10° NNE 01:03:08 69° E 01:03:08 69° E
Cosmos 2237 Rocket 2.5 01:09:48 10° NNW 01:14:26 59° NW 01:14:26 59° NW
Meteor 2-4 Rocket 4.3 01:17:00 46° NW 01:17:00 46° NW 01:21:35 10° N
Cosmos 1814 Rocket 4.4 01:17:45 60° N 01:17:45 60° N 01:22:06 10° NNE
CZ-2C R/B 3.8 01:20:01 31° WNW 01:20:01 31° WNW 01:23:18 10° NNW
Cosmos 1980 4.2 01:13:48 10° NNW 01:18:09 51° NW 01:18:09 51° NW
COSMOS 2428 4.4 01:16:51 10° NW 01:19:25 21° WNW 01:19:25 21° WNW
Cosmos 2227 Rocket 2.2 01:23:14 76° N 01:23:14 76° N 01:28:31 10° NNE
In-Cosmos 22 4.2 01:23:33 72° ENE 01:23:33 72° ENE 01:28:47 10° NNE
IDEFIX/ARIANE 42P 3.6 01:19:08 10° NNE 01:23:52 35° E 01:23:52 35° E
Sich 1 4.4 01:20:31 10° N 01:23:02 36° N 01:23:02 36° N
Cosmos 1655 Rocket 4.2 01:22:03 10° NNW 01:27:46 54° W 01:27:46 54° W
MSX 4.5 01:24:08 10° NNE 01:29:37 43° E 01:30:05 42° ESE
Cosmos 2263 Rocket 2.1 01:36:23 78° E 01:36:23 78° E 01:41:46 10° NNE
Cosmos 1408 Rocket 4.4 01:35:06 10° N 01:38:21 47° NNE 01:38:21 47° NNE
BREEZE-M R/B 4.2 01:39:23 10° WNW 01:44:59 66° SW 01:53:45 10° SE
Cosmos 1417 Rocket 4.5 01:49:47 61° SE 01:50:44 71° E 01:56:50 10° NNE
CENTAUR R/B 3.6 01:55:19 24° ESE 01:56:07 25° ESE 02:01:01 10° NE
Cosmos 2297 Rocket 4.0 01:56:08 18° WNW 01:57:28 20° NW 02:01:31 10° N
Cosmos 2082 3.8 02:03:41 57° SE 02:04:22 62° ESE 02:09:55 10° NNE
Cosmos 1844 Rocket 4.1 02:06:34 23° SE 02:08:18 27° ESE 02:12:55 10° NE
Cosmos 1340 Rocket 3.9 02:06:41 10° NNW 02:09:06 37° NNW 02:09:06 37° NNW
ADEOS II 4.3 02:12:35 10° NE 02:16:02 18° E 02:19:28 10° SE
Cosmos 1151 Rocket 4.2 02:19:09 32° NW 02:19:09 32° NW 02:22:17 10° N
Meteor 1-13 Rocket 4.4 02:17:04 48° SSE 02:18:30 67° E 02:24:10 10° NNE
Cosmos 1703 4.5 02:20:31 30° N 02:20:31 30° N 02:22:17 10° N
S3M 3.9 02:18:41 55° SSW 02:20:07 80° W 02:26:19 10° N
Atlas Centaur 2 3.5 02:20:31 33° SSE 02:20:36 33° SSE 02:27:36 10° ESE
Lacrosse 4 Rocket 3.8 02:21:04 12° NW 02:21:26 12° NW 02:22:59 10° NNW
Cosmos 1633 Rocket 4.3 02:17:50 10° N 02:21:52 37° ENE 02:23:34 26° SE
Resurs 1-4 Rocket 3.5 02:17:18 10° NE 02:21:57 31° E 02:24:28 21° SE
Cosmos 1500 Rocket 4.4 02:19:22 10° NNW 02:22:36 38° WNW 02:22:36 38° WNW
Cosmos 2315 Rocket 4.0 02:24:18 47° S 02:26:20 90° ENE 02:32:42 10° N
BlueWalker 3 4.1 02:26:35 16° NW 02:27:25 17° NNW 02:29:51 10° NNE
USA 307 4.3 02:29:36 20° E 02:29:36 20° E 02:31:11 10° ESE
Cosmos 1570 Rocket 4.0 02:34:00 56° WSW 02:34:54 67° WNW 02:40:11 10° NNE
Tiangong -1.0 02:40:17 41° ENE 02:40:17 41° ENE 02:42:32 10° E
Cosmos 1844 4.4 02:38:29 30° SSE 02:40:55 47° ESE 02:46:25 10° NE
USA 281 3.8 02:34:56 10° SE 02:41:18 56° ENE 02:47:41 10° NNW
Cosmos 1953 2.0 02:38:59 10° N 02:42:23 76° NNW 02:42:23 76° NNW
Cosmos 2219 3.5 02:42:11 42° WSW 02:43:36 53° WNW 02:49:07 10° NNE
FENGYUN 3A 3.8 02:39:27 10° N 02:44:45 57° WNW 02:46:05 44° WSW
ACS3 Solar Sail 3.4 02:41:12 10° NNW 02:45:05 18° WNW 02:46:37 17° W
SL-16 R/B 2.3 02:40:46 10° NNW 02:46:15 51° WSW 02:47:18 45° SW
ADEOS Rocket 3.5 02:38:55 10° N 02:46:31 67° WNW 02:49:49 35° SW
Cosmos 1125 Rocket 3.8 02:41:59 10° NNW 02:46:59 44° WSW 02:47:14 44° WSW
Cosmos 1666 Rocket 3.4 02:48:07 10° N 02:52:33 77° W 02:53:38 51° S
Cosmos 1709 Rocket 4.1 02:48:04 10° NNW 02:54:05 56° W 02:56:28 35° SSW
H-2A R/B 3.8 02:52:57 10° SE 02:56:07 31° ENE 02:59:19 10° N
CZ-2D R/B 2.6 02:51:58 10° NNE 02:57:19 60° ESE 03:00:37 24° S
NOAA 11 4.2 02:52:03 10° N 02:57:29 68° WNW 02:59:35 38° SW
NPP 4.3 02:53:50 10° N 02:58:52 41° WNW 03:00:27 33° WSW
Cosmos 773 Rocket 4.4 02:58:22 37° WSW 02:59:41 45° WNW 03:04:37 10° N
ATLAS 2AS CENTAUR R/B 3.2 02:53:34 10° NNW 03:00:17 61° NE 03:07:01 10° SE
Cosmos 2150 Rocket 4.2 02:56:42 10° NNW 03:02:10 79° ENE 03:07:36 10° SSE
Meteor 1-22 Rocket 4.5 02:56:52 10° NNW 03:02:25 49° W 03:04:16 35° SW
IDEFIX/ARIANE 42P 3.7 02:58:49 10° N 03:03:11 28° WNW 03:04:33 25° W
ALOS 2.3 03:02:56 10° NNE 03:07:29 72° ESE 03:09:49 28° S
Cosmos 2227 Rocket 4.3 03:05:01 10° WNW 03:07:45 14° NW 03:10:34 10° NNW
Cosmos 783 Rocket 4.4 03:06:06 33° SSW 03:08:32 86° ESE 03:13:47 10° NNE
Cosmos 2208 Rocket 4.5 03:07:43 33° WSW 03:09:34 46° WNW 03:14:39 10° N
MOZ.5/SAFIR/RUBIN 5/SL-8 3.7 03:09:00 34° SSW 03:10:48 59° WSW 03:15:21 10° NNW
Cosmos 1515 Rocket 3.6 03:09:57 30° S 03:12:05 83° E 03:16:31 10° N
H-2A R/B 2.3 03:08:49 10° NNE 03:14:13 70° ESE 03:18:10 19° S
Cosmos 2227 4.2 03:14:32 30° SSW 03:17:29 76° WNW 03:23:14 10° NNE
DMSP B5D2-2 4.0 03:14:46 19° S 03:18:25 66° WSW 03:23:37 10° NNW
Cosmos 2263 Rocket 4.1 03:18:02 12° W 03:20:44 16° NW 03:24:11 10° NNW
NOSS 2-2 (E) 2.8 03:21:53 42° SW 03:22:58 82° NW 03:26:04 10° NNE
IRIDIUM 104 4.5 03:20:52 10° N 03:26:06 76° E 03:31:18 10° S
Spot 2 4.4 03:28:01 10° SSE 03:32:59 86° ENE 03:37:53 10° NNW
Cosmos 1943 3.2 03:27:32 10° NNW 03:33:01 56° WSW 03:38:27 10° S
Okean 2 3.6 03:32:30 30° SW 03:33:54 45° W 03:37:36 10° N
Cosmos 2154 Rocket 4.0 03:27:48 10° N 03:34:05 84° E 03:40:17 10° S
IRIDIUM 114 4.3 03:30:01 10° N 03:35:15 88° W 03:40:28 10° S
Envisat 3.5 03:32:58 10° N 03:37:45 42° WNW 03:40:38 21° SW
Cosmos 2074 Rocket 3.9 03:32:42 10° N 03:39:00 79° W 03:45:14 10° S
Cosmos 2184 Rocket 3.9 03:37:04 10° N 03:43:14 76° W 03:49:22 10° S
IRIDIUM 103 4.3 03:39:11 10° N 03:44:24 73° W 03:49:34 10° S
CENTAUR R/B 2.9 03:42:23 19° WSW 03:46:04 48° NW 03:52:35 10° NNE
Meteor 1-16 Rocket 4.4 03:41:14 10° NNW 03:46:15 45° W 03:51:07 11° SSW
BREEZE-M DEB (TANK) 4.2 03:43:27 10° WNW 03:47:22 62° SSW 04:02:10 10° SE
Cosmos 1867 3.5 03:43:34 10° NNW 03:49:04 86° WSW 03:54:30 10° SSE
METEOR-M 4.1 03:45:36 10° NNE 03:50:57 84° WNW 03:56:16 10° SSW
Cosmos 1844 Rocket 3.3 03:48:13 18° WSW 03:51:55 41° WNW 03:57:11 10° N
JB-3 4.1 03:48:22 10° S 03:51:57 64° W 03:55:37 10° NNW
USA 307 3.2 03:53:34 18° W 03:55:06 26° SW 03:58:16 10° S
ADEOS II 2.3 03:50:47 10° N 03:55:53 55° WNW 04:00:25 13° SSW
Cosmos 1812 4.0 03:54:54 10° NE 03:56:00 15° ENE 03:57:06 10° ESE
Cosmos 1603 3.7 03:51:42 10° NNW 03:57:28 81° WSW 04:03:11 10° SSE
Resurs 1-4 Rocket 3.0 03:57:01 10° N 04:01:38 32° WNW 04:05:31 14° SW
AQUA 3.9 03:56:57 10° NNE 04:01:39 75° ESE 04:06:18 10° S
Intelsat 5-1 Rocket 4.4 04:01:14 10° S 04:03:17 12° SSE 04:06:00 10° SE
Cosmos 1933 Rocket 3.7 04:02:20 10° NNW 04:06:33 50° W 04:10:43 10° SSW
Atlas Centaur 2 3.5 04:02:23 13° WSW 04:08:50 41° S 04:16:21 10° ESE
Cosmos 2285 Rocket 4.3 04:03:44 10° NNW 04:09:40 44° WSW 04:15:36 10° S
Cosmos 1610 Rocket 4.5 04:03:41 10° N 04:09:52 76° W 04:16:06 10° S
Cosmos 1328 3.7 04:09:14 10° S 04:12:43 74° E 04:16:15 10° NNE
Cosmos 1441 Rocket 2.9 04:10:56 10° S 04:14:17 84° E 04:17:37 10° N
Tiangong -2.2 04:13:03 10° W 04:16:12 66° SSW 04:19:20 10° ESE
Cosmos 1538 Rocket 4.0 04:11:30 10° SSW 04:16:35 65° WNW 04:21:43 10° NNE
SL-08 RB Rocket 3.9 04:12:24 10° NNE 04:16:56 74° ESE 04:21:28 10° S
Cosmos 1943 Rocket 4.5 04:13:52 10° SSE 04:18:07 22° E 04:22:24 10° NE
Okean 3 4.4 04:15:35 11° SW 04:18:47 27° WNW 04:22:14 10° NNW
SL-24 R/B 4.2 04:15:23 10° NNE 04:19:05 65° E 04:23:05 10° S
Cosmos 44 Rocket 4.4 04:15:51 10° NNW 04:20:54 52° NE 04:25:50 10° SE
Cosmos 1400 Rocket 2.7 04:20:37 10° NNW 04:24:21 59° W 04:28:03 10° S
NOSS 3-2 (A) 3.2 04:20:48 10° SW 04:25:37 63° NW 04:31:19 10° NNE
SL-16 R/B 2.6 04:19:28 10° SSE 04:25:44 84° WSW 04:32:01 10° NNW
USA 281 4.1 04:20:38 10° SSW 04:26:02 27° WSW 04:31:28 10° NW
Cosmos 923 Rocket 4.3 04:24:48 10° S 04:30:05 72° ESE 04:35:22 10° NNE
H-2A R/B 3.9 04:28:12 10° SW 04:30:09 14° W 04:32:06 10° WNW
CZ-4C R/B 3.2 04:30:35 10° NW 04:37:58 82° WSW 04:46:58 10° SSE
